Theta_e
306 305 304 304 303 303 303 302 302 301 300 299 298 298 298 297 297 297 297 297 296 296 295 295 295 295 295 295 295 295 295 295 294 294 294 294 294 294 294 294 294 294 293 293 293 293 293 293 293 293 293 293 293 292 292 292 292 292 291 291 291 291 291 291 291 291 291 290 291
307 306 305 304 304 303 302 302 301 300 299 299 299 299 298 298 297 297 297 297 296 295 295 295 295 295 295 295 295 295 294 294 294 294 294 293 294 294 294 294 293 293 293 293 293 293 293 293 293 293 293 292 292 292 292 292 292 292 291 291 291 291 291 291 291 291 291 290 290
306 305 304 304 303 302 300 299 299 299 299 299 299 299 298 298 297 297 296 296 296 295 295 294 295 295 294 294 295 294 294 294 294 293 293 293 293 293 293 293 293 293 293 293 293 293 293 293 293 292 292 292 292 292 292 291 291 291 291 291 291 291 291 290 291 291 291 290 291
305 304 303 303 302 301 299 299 299 299 299 299 299 298 298 297 297 296 296 296 295 295 294 294 294 294 294 294 294 294 294 294 294 293 293 293 293 293 293 293 293 293 293 293 293 293 292 292 292 292 292 292 292 292 291 291 291 291 291 291 291 291 290 290 291 291 291 291 291
304 303 303 302 301 300 300 299 299 299 299 298 298 297 297 297 296 296 295 295 294 294 294 294 294 294 294 294 294 294 294 294 293 293 293 293 293 293 293 293 292 292 292 292 292 292 292 292 292 292 292 292 292 291 291 291 291 291 291 291 291 290 290 290 291 291 291 291 291
303 303 302 301 301 300 299 299 299 299 298 298 297 296 296 295 295 295 294 294 294 294 294 294 294 294 294 294 294 293 293 293 293 293 293 292 292 292 292 292 292 292 292 292 292 292 292 292 292 292 292 292 291 291 291 291 290 290 290 290 291 291 291 291 291 291 291 291 291
303 302 301 300 300 299 299 299 299 298 298 297 296 296 295 295 295 294 294 294 294 294 294 294 294 293 293 293 293 293 293 293 293 293 293 292 292 292 292 292 292 292 292 292 292 292 292 292 291 291 291 291 291 291 291 290 290 290 290 290 291 291 291 291 291 291 291 290 290
302 301 300 300 299 299 299 299 298 298 297 296 296 295 295 295 294 294 294 294 294 293 294 293 293 293 293 293 293 293 293 292 292 292 292 292 292 292 292 292 292 291 291 292 291 291 291 291 291 291 291 291 291 291 290 290 290 290 290 290 291 291 291 291 292 291 291 290 290
301 300 300 300 299 299 299 298 298 297 296 296 295 295 295 294 294 294 293 293 293 293 293 293 293 293 293 293 293 293 292 292 292 292 292 292 292 292 292 292 291 291 291 291 291 291 291 291 291 291 290 290 290 290 290 290 290 290 290 290 291 291 291 291 291 291 291 290 290
300 299 299 299 299 298 298 298 297 297 296 295 295 295 295 295 294 294 293 293 293 293 293 293 293 293 293 293 293 293 293 292 292 292 292 292 292 292 292 292 291 291 291 291 291 291 291 290 290 290 290 290 290 290 290 290 290 290 290 290 290 291 291 291 291 291 290 290 290
299 298 298 298 298 298 298 297 297 296 295 295 295 294 294 294 294 293 293 293 293 293 293 293 293 293 293 293 293 293 292 292 292 292 292 292 292 292 292 292 291 291 291 291 291 290 290 290 290 290 290 290 290 290 290 290 290 290 290 290 290 290 290 290 291 291 290 290 290
298 298 298 298 298 297 297 296 295 295 295 294 294 294 294 293 293 293 293 293 292 292 293 293 293 293 293 292 292 292 292 292 292 292 291 291 291 291 291 291 291 290 290 290 290 290 290 290 290 290 290 290 290 291 291 290 290 290 290 290 290 290 290 290 290 290 290 290 290
297 297 297 297 297 296 296 295 295 294 294 294 294 294 293 293 293 293 292 292 292 292 293 293 293 293 292 292 292 292 292 292 292 291 291 291 291 291 291 291 290 290 290 290 290 290 290 290 289 289 289 290 290 291 291 290 290 290 290 290 290 290 290 289 290 290 290 290 289
297 297 296 296 296 295 295 294 294 294 293 293 293 293 293 292 292 292 292 292 292 292 292 293 293 293 292 292 292 292 292 292 291 291 291 291 291 291 290 290 290 290 290 290 290 289 289 289 289 289 289 290 290 290 290 290 290 290 290 289 289 289 289 289 289 289 289 289 289
296 296 296 296 295 295 294 294 293 293 293 292 292 292 292 292 292 292 292 292 292 292 292 292 292 292 292 292 291 291 291 291 291 291 290 290 290 290 290 290 290 290 289 289 289 289 289 289 289 289 290 290 290 290 290 290 290 290 290 290 289 289 289 289 289 289 289 288 288
295 295 295 295 294 294 293 293 293 292 292 292 292 292 291 291 292 292 292 292 292 292 292 291 291 291 291 291 291 291 291 291 291 290 290 290 290 290 290 290 289 289 289 289 289 289 289 289 290 290 290 290 290 290 290 290 290 290 290 290 289 289 289 289 288 288 288 288 288
295 295 295 294 294 293 293 293 292 292 291 291 291 291 291 291 292 292 292 292 292 291 291 291 291 291 291 291 291 291 291 291 291 290 290 290 290 289 289 289 289 289 288 288 288 288 289 289 290 290 290 290 290 290 290 290 290 290 290 290 289 289 289 289 288 288 288 288 287
294 294 294 294 293 293 292 292 292 291 291 291 291 291 291 292 292 292 292 292 292 291 291 291 291 291 291 291 291 291 291 291 290 290 290 290 289 289 289 289 288 288 288 288 288 288 289 289 290 290 290 290 291 290 290 290 290 290 290 290 289 289 289 289 288 288 288 288 287
294 294 293 293 293 292 292 292 291 291 291 291 291 291 292 292 292 292 292 292 292 291 291 290 290 291 291 291 291 291 291 290 290 290 289 289 289 289 288 288 288 288 288 288 288 288 289 290 290 290 290 291 291 291 291 291 290 290 290 290 289 289 289 289 289 288 288 288 287
293 293 293 293 292 292 291 291 291 291 291 291 291 291 291 292 292 291 291 291 291 291 291 290 290 290 291 291 290 290 290 290 289 289 289 289 288 288 288 288 287 288 288 288 288 288 289 290 290 290 290 291 291 291 291 291 290 290 290 290 289 289 289 289 289 289 288 288 288
293 293 292 292 292 291 291 291 291 291 291 291 291 291 291 292 291 291 291 291 291 291 291 291 290 290 290 290 290 290 289 289 289 289 288 288 288 288 287 287 287 287 287 288 288 289 289 290 290 291 291 291 291 291 291 290 290 290 290 290 289 289 289 289 289 288 288 288 288
293 292 292 292 292 291 291 291 291 291 291 291 291 291 291 291 291 291 291 291 291 291 291 291 291 290 290 290 289 289 289 289 289 288 288 288 287 287 287 287 287 287 287 287 288 289 290 290 291 291 291 291 291 291 291 290 290 290 290 289 289 289 289 289 289 289 288 288 288
292 292 292 291 291 291 291 291 291 291 291 291 291 291 291 291 291 291 291 291 291 291 291 291 291 290 290 290 289 289 288 288 288 288 287 287 287 287 287 287 287 287 287 288 288 289 290 291 292 292 292 292 291 291 291 290 290 290 289 289 289 289 289 289 289 288 288 288 287
291 291 291 291 291 290 290 290 290 290 290 290 290 290 290 290 290 290 290 291 291 290 290 290 290 290 290 289 289 289 288 287 287 287 287 287 287 287 287 287 287 287 287 288 289 290 291 292 292 292 292 292 292 291 291 290 290 290 289 289 289 288 288 288 288 288 288 288 287
291 290 290 290 290 290 290 290 290 290 290 290 290 290 290 290 290 290 290 290 290 290 290 289 289 289 289 289 289 288 288 287 287 286 286 286 286 287 287 287 287 288 288 288 288 289 290 291 291 292 292 292 291 291 291 291 290 290 289 289 288 288 288 288 288 288 288 287 287
290 290 289 289 290 290 290 290 290 290 290 290 290 290 289 290 290 289 289 289 289 289 289 289 289 288 288 288 288 287 287 287 287 286 286 286 286 286 287 287 287 288 288 288 288 289 290 291 291 291 291 291 291 291 291 290 290 290 289 289 288 288 288 287 287 287 287 287 287
289 289 289 289 289 289 289 290 290 290 290 290 289 289 289 290 289 289 289 289 289 289 289 289 288 288 288 287 287 287 286 287 286 286 286 286 286 286 287 287 287 288 288 288 288 290 290 291 291 291 291 291 291 290 290 290 290 290 289 289 289 288 287 287 287 286 286 287 287
289 289 289 289 289 289 289 290 289 289 289 289 289 289 289 289 289 289 289 289 289 289 288 288 288 288 287 287 286 286 286 286 286 286 286 286 286 287 287 287 287 287 287 287 289 290 290 291 291 291 291 291 291 291 290 290 290 289 289 289 288 288 287 287 286 286 286 286 286
289 289 289 289 289 289 289 289 289 289 289 289 289 289 289 289 289 289 289 288 288 288 288 288 288 287 287 286 286 285 285 286 286 286 286 286 287 287 287 287 287 287 287 287 289 289 290 290 290 290 290 290 290 290 290 290 289 289 288 288 288 287 287 287 286 286 286 286 286
289 289 289 289 289 289 289 289 289 289 289 289 289 289 289 289 289 288 288 288 288 288 288 287 287 287 286 285 285 285 285 286 286 286 286 286 286 286 286 286 286 287 287 287 289 289 290 290 290 290 290 290 290 290 290 290 289 288 288 287 287 287 287 286 286 286 286 286 286
289 289 289 289 289 288 288 288 288 288 289 289 289 289 289 289 288 288 288 288 288 287 287 287 286 286 285 285 285 285 286 286 286 286 286 286 286 286 286 286 286 286 287 287 289 289 289 289 289 289 289 289 289 289 289 289 289 288 288 287 287 287 287 286 286 286 286 286 286
289 289 289 288 288 288 288 288 288 288 289 289 289 289 289 288 288 288 288 288 287 287 286 286 285 285 285 285 285 286 286 286 286 286 286 286 286 286 286 286 286 286 287 288 288 289 289 289 289 289 289 289 289 289 289 289 288 288 287 287 287 287 287 287 286 286 286 286 286
289 289 288 288 288 288 288 288 288 288 289 289 288 288 288 288 288 287 287 287 286 286 286 285 285 285 285 285 285 285 285 286 286 286 286 286 286 286 286 286 286 286 286 287 288 288 288 288 289 289 289 289 289 289 289 288 288 288 287 287 287 287 287 287 286 286 286 286 286
289 288 288 288 288 288 288 288 288 288 288 288 288 288 288 287 287 287 286 286 286 286 285 285 285 285 285 285 285 286 286 286 286 286 286 286 286 286 286 286 286 286 286 287 287 288 288 288 288 288 289 289 289 289 288 288 288 287 287 287 287 287 287 287 287 287 286 286 286
288 288 287 287 288 288 288 288 288 288 288 287 287 287 287 287 287 286 286 285 285 285 285 285 285 285 285 285 285 286 285 285 285 285 285 285 285 285 285 285 286 286 286 286 287 287 287 288 288 288 288 288 289 288 288 287 287 287 287 287 287 287 287 287 287 287 287 287 286
288 287 287 287 287 287 287 287 287 287 287 287 287 287 287 287 286 286 285 285 284 284 284 284 284 285 285 285 285 285 285 285 285 285 285 285 285 285 285 285 285 285 285 286 286 287 287 287 288 288 288 288 288 288 287 287 287 287 286 286 286 286 286 286 287 287 287 287 287
288 287 287 287 287 287 287 287 287 287 287 287 287 287 287 286 285 285 285 284 284 284 284 284 285 285 285 285 285 285 285 285 285 285 285 285 285 285 285 285 285 285 285 285 286 286 287 287 288 288 288 288 287 287 287 287 287 286 286 286 286 286 286 286 287 287 287 287 287
287 287 287 287 287 287 287 287 287 287 287 287 287 286 286 285 284 284 285 285 284 284 285 285 285 285 285 285 285 285 285 285 285 284 284 284 284 284 285 285 285 285 285 285 286 286 287 287 287 288 288 287 287 287 286 286 286 286 286 285 285 286 286 286 287 287 286 286 286
288 288 288 287 287 287 287 287 287 287 287 287 286 285 285 284 284 284 285 285 285 285 285 285 285 285 285 285 285 285 285 284 284 284 284 284 284 284 284 285 285 285 285 285 285 286 286 287 287 287 287 287 287 287 286 286 286 285 285 285 285 285 286 286 286 286 286 286 286
288 288 288 288 288 287 287 287 287 287 286 286 285 284 284 284 284 284 285 285 285 285 285 285 285 285 285 285 285 285 284 284 284 284 284 284 284 284 284 284 285 285 285 285 285 286 286 287 287 287 287 287 287 286 286 286 285 285 285 285 285 285 285 286 286 286 286 286 286
288 288 288 288 287 287 287 286 286 286 285 285 284 284 284 284 284 284 284 285 285 285 285 285 285 285 285 285 285 284 284 284 284 284 284 284 284 284 284 284 284 284 285 285 285 285 286 286 287 287 287 287 286 286 286 285 285 284 284 284 285 285 285 285 285 285 285 285 285
Wind_Speed
11 11 10 10 10 9 8 7 8 8 8 8 8 8 8 8 8 7 7 7 6 6 6 6 6 7 8 10 10 10 10 10 10 9 9 8 8 8 7 7 6 6 5 5 4 3 2 2 2 1 1 1 1 1 1 1 1 2 2 2 2 2 3 3 3 4 4 4 3
13 12 12 11 10 9 8 9 8 8 8 7 8 8 8 8 8 8 7 7 6 6 7 6 7 8 10 11 10 10 10 10 10 10 9 8 8 7 7 6 6 5 5 5 4 3 2 2 1 1 1 1 1 1 1 1 1 2 2 2 2 2 3 3 3 3 3 4 3
12 13 12 13 12 11 10 10 9 10 9 8 8 8 8 7 7 7 7 7 8 8 7 7 8 9 11 11 10 10 10 10 10 9 8 8 8 7 7 6 6 5 5 4 3 2 2 1 1 1 1 1 2 1 1 0 1 2 3 3 2 2 2 2 3 3 3 3 3
13 13 14 14 15 15 13 10 11 11 11 9 9 8 8 7 7 7 8 9 9 8 8 8 8 9 10 10 10 10 10 10 10 9 8 8 7 7 7 6 6 6 5 4 3 3 2 1 1 1 1 2 2 1 1 1 1 2 2 2 2 2 2 2 2 2 2 3 3
14 14 14 14 16 15 13 12 13 12 11 9 9 8 8 7 7 8 8 8 8 8 9 10 9 8 9 10 11 11 10 10 9 8 8 8 7 7 7 6 6 6 5 4 4 3 2 1 1 1 1 1 1 1 1 1 2 2 2 1 2 2 2 2 2 2 2 3 3
14 14 14 14 16 14 12 12 13 12 11 9 10 10 9 8 8 8 9 8 9 10 11 11 10 9 10 11 11 11 10 9 8 8 8 8 7 7 7 6 6 5 5 4 4 3 2 1 1 1 1 1 1 0 0 1 2 2 2 2 1 2 2 2 2 2 3 3 4
15 15 15 15 15 14 12 13 13 12 11 10 12 12 11 10 10 11 11 10 10 10 10 9 9 10 10 11 10 10 9 8 8 8 8 7 7 7 7 6 6 5 5 4 4 3 2 1 1 1 1 1 1 0 0 1 2 2 3 2 1 1 2 2 2 2 3 4 5
16 16 16 15 15 14 14 14 13 12 11 10 12 13 14 13 13 13 12 11 10 9 9 8 10 11 11 10 10 9 9 9 8 8 7 7 7 7 7 6 6 5 5 4 3 2 1 1 1 1 1 1 1 1 0 1 2 3 3 3 2 2 2 2 2 3 4 5 6
14 15 15 14 14 15 15 15 14 13 12 12 13 14 14 14 15 14 12 11 10 9 9 9 10 11 11 11 10 9 9 8 8 8 7 7 7 7 6 6 6 5 4 3 3 2 2 1 1 1 1 1 1 1 0 1 2 3 3 3 2 3 3 3 3 4 4 5 6
14 14 14 14 14 15 15 15 14 14 14 14 14 15 14 14 14 13 11 10 10 10 9 10 11 11 11 11 10 9 8 8 7 7 7 7 7 6 6 5 5 5 4 3 3 2 2 1 1 1 1 1 1 1 1 1 2 3 3 2 3 4 4 4 4 5 5 5 6
15 15 14 14 15 15 15 14 13 13 13 14 14 14 14 13 13 12 11 10 10 11 11 11 11 11 11 10 9 8 8 7 7 7 7 7 6 6 6 5 5 4 4 3 2 2 1 1 1 1 1 1 1 1 1 1 2 3 3 3 4 4 5 5 5 5 5 5 6
15 15 15 15 15 15 15 14 12 12 13 14 14 13 13 12 12 12 12 12 12 11 11 11 11 11 10 8 8 8 8 7 7 7 7 7 6 6 5 5 5 4 4 3 2 1 1 1 1 1 2 2 2 1 1 2 3 3 4 4 4 5 5 5 5 5 5 5 6
15 15 15 15 15 15 14 13 12 12 13 13 13 12 11 11 12 12 12 13 12 11 10 10 10 10 9 8 8 7 7 7 7 7 6 6 6 6 6 5 5 4 4 3 2 1 1 1 1 2 2 2 2 1 2 2 3 4 4 5 5 5 6 6 6 6 6 6 7
16 15 15 16 15 15 13 13 11 11 12 13 12 11 11 11 11 11 12 12 11 11 10 10 9 8 8 8 8 8 7 7 7 7 7 6 6 6 5 5 4 4 3 3 2 2 2 1 1 2 2 2 2 2 2 3 3 4 5 5 6 6 6 6 6 6 6 7 8
16 16 16 16 15 14 13 12 11 11 12 12 12 11 11 10 11 10 11 11 11 10 9 9 8 8 8 8 8 8 8 7 7 7 7 7 6 6 5 5 4 3 3 2 2 2 2 2 2 2 2 2 2 3 3 3 4 4 5 5 6 6 6 6 6 6 7 7 8
16 16 16 15 14 13 12 11 10 10 11 11 11 11 10 10 10 10 10 11 10 9 9 9 8 8 8 8 8 8 7 7 7 7 7 6 6 5 5 4 4 3 3 2 2 2 2 2 2 2 2 2 3 3 4 4 4 5 5 5 5 6 6 6 6 7 7 8 8
16 16 15 15 14 14 13 11 10 10 11 11 11 11 10 10 10 10 10 10 9 9 9 10 9 8 8 8 7 7 7 6 6 6 6 6 6 5 5 4 4 3 2 2 2 2 2 2 2 2 2 3 3 4 4 5 5 5 5 5 5 6 6 6 6 7 7 8 9
16 15 15 15 14 14 13 12 12 12 12 12 12 11 10 10 10 10 10 10 10 10 11 10 9 8 8 8 7 6 5 6 6 5 5 5 5 5 5 4 3 3 2 2 2 2 2 2 2 2 3 3 4 4 4 5 5 5 5 5 5 6 6 6 6 7 7 8 9
15 15 15 14 14 14 14 13 13 13 13 12 12 11 11 11 11 11 10 10 10 11 11 11 9 9 8 8 7 6 5 5 6 6 5 5 5 5 4 4 3 2 2 2 2 2 2 2 2 3 3 4 4 4 5 5 5 5 5 6 6 6 6 6 7 7 7 8 9
15 15 14 14 14 14 14 14 14 13 13 12 12 12 12 12 12 11 11 11 10 11 11 10 9 9 8 8 7 6 6 5 5 6 6 5 5 4 4 3 3 2 2 2 2 2 2 3 3 3 4 4 5 5 5 5 6 6 6 6 6 6 6 6 7 7 8 8 9
15 14 14 14 14 14 14 14 14 13 13 13 13 13 13 12 12 12 11 11 11 10 10 10 10 9 9 8 8 7 6 5 5 5 5 5 5 4 3 3 2 2 1 1 2 2 3 3 3 4 4 5 5 5 5 6 6 6 6 6 6 6 6 7 7 8 8 9 9
14 14 14 14 14 14 14 14 13 13 13 13 13 13 13 12 12 12 11 11 10 10 10 9 9 9 8 8 8 7 6 5 5 5 5 4 4 4 3 2 1 1 1 1 2 2 3 3 4 4 5 5 5 6 6 6 6 6 7 7 7 7 7 7 8 8 8 9 9
14 13 13 13 14 14 14 14 14 14 14 13 13 13 13 12 12 12 11 10 10 10 9 9 8 8 8 8 7 7 6 6 5 5 4 4 4 3 2 2 1 1 1 1 1 2 3 4 5 5 5 5 5 6 6 6 6 7 7 8 8 8 8 8 8 8 9 9 9
14 14 13 12 13 14 14 14 14 14 14 13 13 13 13 12 12 11 11 10 10 10 9 8 7 7 7 7 7 7 7 6 6 5 5 4 3 3 2 2 1 0 0 1 2 3 4 5 5 5 6 6 6 6 6 6 6 7 7 8 8 8 8 8 9 9 9 10 9
15 14 14 13 14 14 14 14 14 14 13 13 13 13 12 12 11 11 11 10 10 10 9 9 8 7 7 6 6 6 6 6 6 5 5 4 3 2 2 1 1 1 1 1 2 4 5 6 6 6 6 6 6 6 6 6 7 7 7 8 8 8 9 9 9 10 10 10 9
15 15 15 14 14 14 14 14 14 14 13 13 13 12 12 12 11 11 11 10 10 10 9 9 8 7 6 6 5 5 5 5 4 4 4 3 3 2 1 0 1 1 1 1 3 5 6 6 6 7 7 7 7 7 7 7 7 7 7 8 8 8 9 9 9 10 10 9 9
15 15 15 15 15 14 14 14 14 13 13 13 13 12 12 11 10 11 11 11 10 9 9 8 7 6 6 5 5 5 5 4 4 3 3 3 2 1 1 1 1 1 1 2 4 6 6 7 7 7 7 7 7 7 7 7 7 7 7 7 8 8 9 9 10 10 10 10 10
15 15 15 15 15 14 14 14 14 13 13 13 12 12 11 11 11 11 11 10 10 9 8 6 6 5 4 4 5 5 4 4 3 3 3 2 2 1 1 1 1 1 2 3 5 6 7 7 8 8 8 8 7 7 7 7 7 7 7 7 7 8 8 9 9 9 10 10 10
16 16 16 16 15 15 14 14 14 13 13 12 12 12 12 11 11 11 10 10 9 8 6 5 5 4 4 4 4 4 4 4 3 3 2 2 1 1 1 2 2 2 3 4 6 6 7 8 8 8 9 9 7 7 6 6 6 6 6 6 7 7 8 8 8 9 9 10 10
16 16 16 16 15 15 14 13 13 13 12 11 12 12 12 11 11 10 10 9 8 7 6 5 4 4 5 5 4 4 4 3 3 2 2 2 1 1 2 2 2 2 3 4 6 7 7 8 8 9 9 10 9 8 7 6 6 6 6 6 7 8 9 9 9 10 10 9 10
16 16 16 16 15 14 14 13 13 12 12 11 12 12 11 11 10 10 9 8 7 6 6 6 6 5 5 5 4 4 4 3 3 2 2 2 2 2 2 2 2 2 3 5 6 7 8 8 9 9 10 11 9 8 7 7 7 7 7 7 8 9 9 9 9 10 10 11 11
16 16 15 15 15 14 13 13 12 12 12 12 12 11 11 11 10 9 8 7 7 7 6 6 6 6 5 5 4 4 4 3 3 2 2 2 1 1 1 2 2 2 3 5 7 8 8 9 9 10 11 11 10 9 8 8 8 7 7 8 9 9 9 8 8 9 11 11 11
16 15 15 15 15 14 13 13 12 12 12 12 12 11 11 10 9 8 8 7 6 6 6 6 6 6 5 5 4 4 4 3 3 2 2 2 1 1 2 2 2 3 4 6 7 8 9 9 10 10 11 12 10 9 9 8 7 7 7 8 8 9 9 9 9 10 11 11 11
16 15 15 15 14 14 13 13 12 12 12 12 11 11 10 9 9 8 7 6 5 5 5 5 5 4 4 4 4 3 3 3 3 2 2 1 1 1 2 2 2 3 4 6 7 8 9 10 10 11 12 12 10 9 8 8 8 7 8 8 9 9 9 9 10 10 11 11 10
15 15 15 14 14 13 13 13 12 12 12 12 11 10 9 9 8 8 7 6 5 5 4 4 4 4 3 3 3 3 3 3 2 2 2 1 1 2 2 2 2 3 4 6 7 8 9 10 11 12 12 11 9 8 8 8 8 8 9 9 9 9 9 9 10 10 10 10 9
15 15 15 14 14 13 13 12 12 12 12 11 11 10 9 8 7 7 7 6 6 5 5 4 4 4 4 4 3 3 3 2 2 2 1 1 1 2 3 3 3 3 4 5 7 8 9 10 11 12 12 10 8 7 7 7 7 8 9 10 10 10 10 10 9 9 9 8 7
14 14 15 14 14 13 13 12 12 12 11 11 10 9 9 8 7 6 6 6 6 6 5 5 5 4 4 4 3 3 2 2 2 1 1 1 2 2 3 4 3 3 4 5 7 8 10 10 11 12 12 9 8 8 7 7 7 7 8 9 9 10 9 9 8 8 7 7 7
14 14 14 14 14 13 13 12 12 12 11 10 9 9 8 7 6 6 5 5 5 5 5 5 5 4 4 3 3 3 3 2 1 1 1 1 2 3 4 4 4 4 4 5 7 8 10 11 12 12 12 9 9 8 7 7 7 7 8 8 8 9 9 7 6 6 6 7 8
13 13 13 14 13 13 12 12 12 11 11 10 9 8 7 7 6 5 4 4 4 5 5 5 5 4 4 3 3 3 3 2 1 1 1 1 1 2 4 5 5 4 4 5 7 8 10 11 12 12 12 10 9 8 7 7 7 8 8 8 8 8 8 7 6 5 6 8 10
13 13 13 13 13 12 12 12 11 10 10 9 9 8 7 6 5 5 4 3 3 4 4 5 4 4 3 3 2 3 3 2 2 1 0 1 1 2 3 5 5 5 5 5 6 8 10 11 12 12 12 10 9 8 7 7 7 8 8 7 7 7 7 6 6 6 7 9 10
12 12 12 12 12 12 12 11 11 10 9 9 8 7 7 6 5 5 4 3 4 4 4 4 4 4 3 2 2 2 2 2 2 1 0 1 1 2 3 4 5 5 5 5 6 8 10 11 12 12 12 10 9 8 7 7 7 8 8 8 7 7 7 7 7 7 8 9 9
Wind_Direction
142 141 140 142 144 147 150 155 160 161 159 154 150 148 147 146 145 146 148 149 143 138 133 129 129 131 133 134 130 127 125 124 124 124 125 126 125 126 127 127 128 128 128 128 130 131 132 136 136 141 161 202 221 209 201 217 254 266 272 278 287 294 296 293 292 291 290 284 280
144 142 142 142 144 148 153 160 163 163 159 153 148 146 145 144 143 144 144 141 135 131 127 125 129 132 134 133 130 128 126 126 126 126 126 126 126 127 128 127 126 126 127 129 130 132 137 151 153 165 183 213 232 225 208 205 262 276 282 286 295 299 298 291 292 295 295 291 286
145 145 145 148 152 157 162 164 162 159 154 148 145 143 141 140 140 138 137 133 130 128 127 128 132 133 133 131 129 128 127 128 129 129 128 128 129 130 129 127 126 125 125 125 125 128 137 154 167 194 221 234 250 252 243 218 266 283 293 302 305 300 292 290 296 299 298 292 290
147 148 151 156 161 164 165 161 157 153 149 144 141 139 136 135 134 132 130 128 128 128 130 133 133 133 133 131 130 128 128 129 130 130 130 130 131 132 131 130 128 126 123 122 123 126 134 151 168 228 249 263 280 292 303 289 283 290 298 309 303 295 292 292 298 302 299 295 295
152 154 158 162 165 165 161 155 152 148 144 140 139 136 134 131 130 130 130 129 131 132 133 134 133 133 133 131 130 129 129 130 131 131 131 132 132 133 133 132 128 126 124 124 126 132 144 170 191 230 256 279 293 312 324 309 297 293 291 282 284 287 291 293 297 298 296 293 293
156 159 161 163 163 160 154 149 147 144 141 140 139 137 135 135 135 134 133 130 130 131 132 133 132 132 132 131 130 130 130 132 133 133 133 133 134 135 133 130 128 127 127 129 133 143 163 193 205 228 251 270 276 296 323 305 297 293 287 272 273 281 287 292 297 297 293 291 296
159 161 162 160 157 152 147 145 142 140 139 139 139 139 138 137 136 134 132 129 130 132 133 134 134 134 133 132 132 132 133 135 136 136 137 137 137 137 135 132 130 129 130 134 143 153 172 208 228 236 240 256 265 254 269 303 298 294 292 290 290 290 291 294 295 293 292 296 300
159 159 157 154 150 146 143 142 141 140 140 140 140 139 138 136 134 132 131 130 131 134 135 135 136 135 134 133 133 134 135 137 138 139 140 139 139 138 136 134 132 132 133 139 147 155 172 210 238 251 259 262 263 259 278 314 297 294 295 299 300 297 293 294 291 290 292 296 299
155 153 149 145 142 141 140 140 140 140 139 138 137 137 135 134 133 132 131 131 133 134 135 135 135 134 133 133 133 135 137 139 140 140 141 142 142 141 139 137 136 136 137 142 147 159 182 217 227 239 252 259 261 264 280 287 287 291 296 300 303 301 297 292 292 292 294 296 298
148 144 141 139 138 137 137 138 138 137 135 134 134 134 133 133 133 132 131 130 132 133 134 135 135 134 133 133 134 136 137 139 140 141 143 144 144 143 141 139 140 140 142 145 153 169 195 227 232 236 240 251 257 254 251 266 284 292 297 300 305 303 301 298 299 299 299 300 302
141 139 138 137 137 136 135 135 133 132 132 131 132 132 132 132 131 129 128 129 131 133 134 135 135 134 133 132 134 136 138 139 141 142 143 143 142 140 139 137 140 141 142 145 155 176 208 236 243 243 242 249 249 244 247 269 287 294 298 300 301 300 301 305 308 307 307 308 308
137 136 135 135 135 134 133 132 130 130 130 131 131 131 131 129 128 128 129 131 131 131 132 134 134 133 132 132 134 136 138 140 142 141 141 139 139 138 137 137 139 139 140 143 158 182 216 235 248 250 248 252 255 260 278 292 295 297 299 301 301 302 305 311 314 314 314 315 310
135 135 134 134 134 133 131 130 129 130 130 131 130 129 128 127 128 129 130 131 130 129 130 132 131 130 130 132 134 136 139 142 143 141 140 139 139 139 139 138 140 141 143 146 159 186 214 221 241 256 265 270 281 297 306 300 300 301 304 305 306 308 311 316 317 318 316 314 310
135 134 134 134 133 132 130 129 129 130 131 130 129 127 126 127 129 130 130 129 128 128 129 129 128 128 130 133 135 138 141 143 143 141 140 140 141 141 141 140 142 144 145 147 161 187 212 224 236 255 271 283 295 302 301 297 299 302 305 307 309 311 314 317 318 317 316 314 312
135 135 134 134 133 132 131 131 130 130 130 130 128 128 127 128 129 129 128 127 127 127 128 128 126 126 127 132 135 139 141 142 142 141 140 140 141 141 141 140 141 143 145 152 168 186 206 225 239 257 274 286 294 298 299 297 298 301 303 306 308 311 313 316 317 317 316 316 315
136 136 135 135 134 133 132 132 130 130 131 130 130 130 129 129 129 128 127 128 127 127 127 126 124 125 127 131 135 138 140 142 142 141 141 140 141 140 140 138 138 140 146 161 178 190 202 220 236 255 274 286 292 295 298 299 298 299 301 303 305 308 311 314 315 316 316 316 316
137 137 137 136 135 134 133 132 130 131 131 131 131 130 129 128 128 128 129 130 129 128 127 127 126 128 131 134 137 139 141 142 142 141 140 139 138 137 136 133 132 138 151 175 193 202 208 219 234 251 266 278 286 291 295 296 297 299 301 302 303 305 307 310 312 314 315 316 316
139 138 137 136 135 134 132 131 130 130 131 131 131 129 128 128 129 129 129 130 129 129 129 128 129 131 134 137 139 140 141 140 139 136 134 132 132 131 129 128 130 139 157 187 208 221 229 235 245 256 265 273 280 286 291 293 296 298 299 300 299 301 303 307 310 313 314 316 317
139 138 137 136 134 132 131 130 130 130 130 130 129 127 127 127 128 128 128 129 129 130 130 130 131 133 135 137 137 137 135 133 132 130 128 127 127 127 127 128 133 146 167 199 218 234 245 251 261 268 274 278 283 287 290 293 294 296 297 296 296 298 302 306 309 311 312 314 316
138 137 136 134 132 130 129 129 129 129 128 127 126 126 126 126 127 127 127 128 129 130 130 131 132 134 135 135 134 132 129 127 129 128 127 126 126 126 126 129 137 152 176 210 228 240 251 261 270 276 280 284 287 290 292 294 294 295 295 294 294 297 302 305 306 308 309 312 314
136 134 133 131 130 128 128 127 126 126 125 124 125 125 125 125 125 126 126 127 129 130 130 131 132 133 134 133 132 130 128 126 128 128 126 125 125 124 125 130 140 159 191 223 240 253 263 273 279 283 285 287 289 291 294 296 297 297 295 293 296 299 301 302 303 305 307 310 313
131 129 128 127 127 126 125 124 124 124 123 123 124 124 124 123 123 124 125 126 128 129 129 129 130 131 132 132 131 130 128 127 126 126 125 126 125 126 128 135 151 177 217 244 262 274 280 284 284 284 285 286 289 291 294 296 298 298 297 296 298 299 300 300 302 304 306 309 311
126 124 123 123 123 123 123 123 123 122 122 122 123 122 122 121 122 123 125 126 127 127 126 125 125 127 129 130 131 131 130 129 128 127 127 127 128 131 138 150 168 196 254 290 305 304 302 298 294 291 289 288 289 291 294 296 297 298 299 300 301 301 301 301 303 304 306 308 310
123 123 122 122 122 123 122 123 122 122 122 122 122 122 121 122 123 124 125 126 125 124 122 121 121 123 126 128 130 132 133 132 132 132 132 133 135 141 149 167 171 166 354 354 335 323 317 314 313 310 307 303 300 299 298 298 297 298 300 302 302 302 302 302 304 305 307 309 310
123 122 122 122 123 124 123 123 123 123 122 122 122 122 122 123 124 125 125 123 122 120 119 119 121 123 125 126 128 130 131 132 134 135 137 138 138 145 155 165 128 71 36 0 328 318 315 318 320 320 318 315 311 307 302 298 297 297 299 300 301 301 301 302 303 305 307 309 310
123 123 123 124 125 124 123 123 123 122 122 122 122 123 123 124 124 124 123 122 121 120 121 122 123 125 126 126 128 128 127 127 130 133 135 136 135 137 139 106 69 59 35 345 324 317 316 318 319 319 317 314 311 308 304 299 299 298 298 297 297 298 300 302 304 306 308 309 310
124 124 125 125 125 124 123 123 122 122 123 123 123 124 125 126 125 124 123 122 122 122 123 123 125 126 126 127 128 127 125 124 125 127 127 125 123 118 100 57 52 46 16 341 324 321 320 321 322 321 318 314 311 308 305 302 301 299 296 293 293 295 299 301 305 307 309 310 310
126 126 126 125 124 124 123 123 123 123 124 125 125 125 126 126 125 124 123 123 124 125 125 125 127 129 129 128 127 126 127 128 128 127 126 122 116 99 61 34 38 29 4 337 325 323 323 324 324 323 321 318 311 305 301 298 297 297 295 293 295 297 300 302 305 307 309 310 309
127 127 127 126 125 125 124 125 125 125 125 125 126 126 126 126 125 125 125 127 128 129 129 130 133 133 131 128 130 131 131 130 129 128 129 128 115 88 50 28 26 19 0 336 327 325 325 325 325 323 322 320 312 305 300 297 297 297 297 297 298 300 302 304 305 307 307 308 308
128 128 127 126 126 125 125 125 125 125 126 126 127 126 126 125 125 126 127 129 129 129 129 132 134 133 132 133 138 138 135 129 128 127 124 113 90 64 43 24 17 10 354 336 329 328 327 327 325 323 321 319 312 305 299 297 297 297 297 297 298 299 301 302 304 305 306 307 307
129 128 127 126 125 125 125 125 125 126 127 128 128 127 126 125 125 126 126 125 125 124 125 128 129 130 133 138 138 136 131 129 129 122 109 87 65 46 30 19 14 4 351 338 331 329 328 327 325 323 321 319 312 305 299 297 296 296 295 296 297 298 299 300 301 303 305 307 308
128 127 126 125 124 124 125 126 127 128 129 128 127 126 124 122 121 121 121 121 123 125 128 131 132 134 136 138 135 131 128 126 120 110 95 75 55 32 14 5 9 5 353 339 332 329 328 327 325 323 320 319 311 304 298 295 295 294 294 294 295 296 297 298 300 302 304 306 307
127 126 125 124 124 125 126 128 128 128 127 126 124 121 119 118 118 118 120 122 127 131 134 135 137 137 138 136 132 129 125 119 111 104 92 75 48 19 0 354 12 9 355 337 332 330 328 326 324 322 320 318 310 303 297 295 295 295 294 294 294 294 295 296 298 300 303 304 306
126 125 124 124 125 126 127 128 127 126 124 122 120 119 118 119 121 123 124 126 128 128 128 127 126 126 125 124 124 124 121 117 112 107 97 76 41 8 354 349 11 7 352 334 330 329 327 325 324 323 321 317 310 303 298 297 296 296 296 296 295 295 295 296 297 299 301 304 307
126 126 125 125 126 126 127 126 126 124 123 121 120 120 121 123 125 127 127 125 122 119 116 115 117 118 118 118 120 119 117 113 109 103 90 60 22 357 347 344 359 359 347 332 329 328 326 325 324 323 322 317 309 303 301 300 299 298 298 298 298 298 298 298 299 300 303 307 310
127 126 126 126 126 126 126 126 125 124 123 122 122 123 124 124 124 124 124 124 123 123 125 130 134 135 135 133 129 121 111 104 101 94 78 44 2 345 337 332 343 349 344 332 328 326 325 324 325 325 323 317 311 306 304 304 302 301 301 301 302 302 303 303 304 307 311 315 313
127 127 127 127 127 127 127 128 127 126 125 124 125 125 125 123 122 123 126 129 132 135 139 144 143 139 133 127 120 110 100 91 87 78 66 38 353 336 329 324 332 339 339 333 328 325 325 325 326 326 324 318 314 310 308 305 303 302 302 303 303 304 306 306 311 317 321 319 308
128 128 128 128 128 129 129 129 128 127 126 125 125 124 124 123 123 127 134 141 143 144 144 142 135 127 120 117 114 109 104 92 74 58 41 25 349 331 324 319 325 332 335 332 327 325 324 325 326 327 326 320 316 313 309 306 304 304 304 304 304 306 309 314 323 327 321 307 298
129 129 129 129 129 130 130 129 127 126 125 124 124 123 123 123 125 131 139 147 145 142 137 130 123 119 118 122 120 117 112 104 87 54 7 357 345 327 318 315 319 324 328 329 324 323 324 325 326 327 326 320 317 314 310 308 306 306 305 305 304 308 314 325 331 322 306 295 292
129 129 128 128 128 128 127 125 124 123 123 124 124 124 124 124 126 130 136 140 136 130 124 119 118 118 119 121 116 114 114 115 111 96 13 334 326 308 303 306 314 318 322 324 323 322 323 324 326 327 326 322 319 315 311 309 307 307 307 307 310 315 323 331 323 310 299 296 296
126 126 126 125 125 124 123 122 121 121 121 122 123 123 123 125 128 133 137 136 132 125 119 116 116 115 114 112 108 108 110 114 114 112 91 307 294 287 289 303 311 316 319 323 323 323 323 324 325 326 327 324 320 316 312 309 307 308 310 314 320 324 326 324 314 305 301 302 303